weather.gov     
National Weather Service

Terminal Aerodrome Forecast
NWS Homepage
This page is being discontinued on March 12, 2014.
The same data is available at this site. Please update your bookmarks.
Thank you, and we apologize for the inconvenience.
Please send an email to SR-SRH.Webmaster@noaa.gov with any concerns.


Current Version
Previous Version:    01  02  03  04  05  06  07  08  09  10  11  12  13  14  15  16  17  18  19  20  21  22  23  24  25  26  27  28  29  30  
   31  32  33  34  35  36  37  38  39  40  41  
[Printable]
758
FTUS41 KBOX 231408 AAA
TAFBOS
TAF AMD
KBOS 231408Z 2314/2418 23010KT P6SM SCT050 BKN100
     FM232300 21006KT P6SM BKN100
     FM240700 17007KT P6SM BKN110
     FM240900 14008KT 6SM -RA OVC090
     FM241200 14013G23KT 6SM -RA BR OVC010 WS020/17045KT=




758
FTUS41 KBOX 231408 AAA
TAFBOS
TAF AMD
KBOS 231408Z 2314/2418 23010KT P6SM SCT050 BKN100
     FM232300 21006KT P6SM BKN100
     FM240700 17007KT P6SM BKN110
     FM240900 14008KT 6SM -RA OVC090
     FM241200 14013G23KT 6SM -RA BR OVC010 WS020/17045KT=


U.S. Dept. of Commerce
NOAA National Weather Service
1325 East West Highway
Silver Spring, MD 20910
E-mail: w-nws.webmaster@noaa.gov
Page last modified: May 16, 2007
NATIONAL WEATHER SERVICE: for Safety, for Work, for Fun - FOR LIFE